EW3670 Weather Reports


Display with metric or nautical units.
time (UTC)temp
F
wind
direction
speed
MPH
gust
MPH
rain 1hr
in
rain 24hr
in
rain mn
in
humidity
%
barometer
mb
20260902054604 65 45 2.0 7.0 0.00 0.12 0.00 71 1016.1
20260902053106 65 67 1.0 5.0 0.00 0.12 0.00 70 1016.0
20260902051604 66 78 1.0 8.0 0.00 0.12 0.00 69 1016.1
20260902050107 66 16 2.0 5.0 0.00 0.12 0.00 68 1015.9
20260902044608 66 62 1.0 5.0 0.00 0.12 0.00 67 1015.8
20260902043104 66 37 2.0 10.0 0.00 0.12 0.00 67 1016.0
20260902041609 67 47 2.0 7.0 0.00 0.12 0.00 66 1015.9
20260902040107 67 92 3.0 6.0 0.00 0.12 0.00 64 1015.6
20260902034601 67 86 2.0 7.0 0.00 0.12 0.12 63 1015.6
20260902033106 68 101 2.0 8.0 0.00 0.12 0.12 63 1015.6
20260902031558 68 35 1.0 5.0 0.00 0.12 0.12 63 1015.6
20260902030118 68 360 2.0 4.0 0.00 0.12 0.12 62 1015.5
20260902024601 68 51 1.0 4.0 0.00 0.12 0.12 62 1015.5
20260902023112 68 24 2.0 6.0 0.00 0.12 0.12 62 1015.5
20260902021621 68 42 2.0 6.0 0.00 0.12 0.12 62 1015.4
20260902020104 68 57 2.0 4.0 0.00 0.12 0.12 62 1015.2
20260902014557 68 148 2.0 4.0 0.00 0.12 0.12 61 1015.1
20260902013056 69 58 1.0 6.0 0.00 0.12 0.12 61 1015.3
20260902011602 69 80 1.0 8.0 0.00 0.12 0.12 60 1015.5
20260902004605 70 55 2.0 7.0 0.00 0.12 0.12 58 1015.0
20260902003101 71 155 2.0 6.0 0.00 0.12 0.12 57 1014.9
20260902001553 71 122 2.0 4.0 0.00 0.12 0.12 56 1014.8
20260902000104 72 134 2.0 5.0 0.00 0.12 0.12 55 1015.0
20260901234614 72 106 2.0 8.0 0.00 0.12 0.12 54 1015.1
20260901233103 73 98 1.0 7.0 0.00 0.12 0.12 53 1015.3
20260901231606 73 113 2.0 8.0 0.00 0.12 0.12 54 1015.5
20260901230138 74 74 2.0 11.0 0.00 0.12 0.12 54 1015.7
20260901224601 74 80 3.0 10.0 0.00 0.12 0.12 54 1015.7
20260901223110 74 124 2.0 9.0 0.00 0.12 0.12 54 1015.6
20260901221603 74 138 2.0 9.0 0.00 0.12 0.12 53 1015.6
20260901220108 75 128 3.0 9.0 0.00 0.12 0.12 53 1015.6
20260901214602 75 139 2.0 13.0 0.00 0.12 0.12 52 1015.3
20260901213106 75 157 3.0 12.0 0.00 0.12 0.12 52 1015.3
20260901211603 76 121 4.0 10.0 0.00 0.12 0.12 51 1015.2
20260901210104 76 148 2.0 11.0 0.00 0.12 0.12 52 1014.9
20260901204605 76 340 3.0 9.0 0.00 0.12 0.12 50 1015.0
20260901203120 76 57 3.0 10.0 0.00 0.12 0.12 51 1014.8
20260901201602 76 82 4.0 10.0 0.00 0.12 0.12 50 1014.5
20260901200106 76 144 3.0 9.0 0.00 0.12 0.12 49 1014.5
20260901194608 76 132 6.0 12.0 0.00 0.12 0.12 50 1014.6
20260901193106 77 86 4.0 12.0 0.00 0.12 0.12 50 1014.3
20260901191603 77 102 5.0 10.0 0.00 0.12 0.12 49 1014.9
20260901190109 77 98 5.0 11.0 0.00 0.12 0.12 49 1015.1
20260901184556 77 38 5.0 12.0 0.00 0.12 0.12 51 1015.0
20260901183110 76 39 5.0 12.0 0.00 0.12 0.12 52 1014.8
20260901181604 76 121 6.0 13.0 0.00 0.12 0.12 54 1014.8
20260901180104 77 108 3.0 12.0 0.00 0.12 0.12 55 1014.7
20260901174601 76 59 2.0 11.0 0.00 0.12 0.12 55 1014.9
20260901173109 76 152 5.0 10.0 0.00 0.12 0.12 54 1014.9
20260901171555 75 121 4.0 13.0 0.00 0.12 0.12 56 1015.3
20260901170104 74 112 5.0 12.0 0.00 0.12 0.12 57 1015.3
20260901164634 74 142 5.0 14.0 0.00 0.12 0.12 57 1015.3
20260901163104 74 126 4.0 11.0 0.00 0.12 0.12 56 1015.4
20260901161608 73 105 6.0 12.0 0.00 0.12 0.12 57 1015.6
20260901160105 74 96 3.0 13.0 0.00 0.12 0.12 56 1015.6
20260901154601 73 124 6.0 13.0 0.00 0.12 0.12 57 1015.6
20260901153059 72 173 4.0 12.0 0.00 0.12 0.12 59 1015.8
20260901151606 70 180 5.0 15.0 0.00 0.12 0.12 61 1016.0
20260901144600 69 98 1.0 10.0 0.00 0.12 0.12 68 1016.0
20260901143100 68 127 2.0 9.0 0.00 0.12 0.12 69 1016.2
20260901141610 67 50 2.0 11.0 0.00 0.12 0.12 70 1016.1
20260901140100 67 59 2.0 9.0 0.00 0.12 0.12 71 1016.0
20260901134604 66 40 2.0 10.0 0.00 0.12 0.12 73 1016.1
20260901133104 65 48 2.0 5.0 0.00 0.12 0.12 74 1016.2
20260901131615 64 9 2.0 6.0 0.00 0.12 0.12 76 1016.1
20260901130106 64 141 2.0 6.0 0.00 0.12 0.12 76 1015.9
20260901124602 63 86 1.0 6.0 0.00 0.12 0.12 78 1015.8
20260901123101 63 9 2.0 6.0 0.00 0.12 0.12 79 1015.6
20260901121613 63 17 1.0 6.0 0.00 0.12 0.12 82 1015.4
20260901120124 63 5 2.0 6.0 0.00 0.12 0.12 82 1015.3
20260901114605 62 81 2.0 9.0 0.00 0.12 0.12 85 1015.4
20260901113103 62 352 1.0 7.0 0.00 0.12 0.12 86 1015.3
20260901111609 62 158 2.0 5.0 0.00 0.12 0.12 86 1015.0
20260901110057 62 121 1.0 7.0 0.00 0.12 0.12 87 1014.8
20260901104603 62 115 1.0 5.0 0.00 0.12 0.12 87 1015.5
20260901103124 62 18 1.0 6.0 0.00 0.12 0.12 88 1015.6
20260901101602 62 113 1.0 4.0 0.00 0.12 0.12 87 1015.4
20260901100106 62 121 1.0 5.0 0.00 0.12 0.12 87 1015.6
20260901094600 62 100 1.0 3.0 0.00 0.12 0.12 87 1015.4
20260901093132 63 107 1.0 3.0 0.00 0.12 0.12 88 1015.5
20260901091608 63 0 0.0 3.0 0.00 0.12 0.12 87 1015.4
20260901090101 63 52 0.0 2.0 0.00 0.12 0.12 88 1015.5
20260901084558 63 44 1.0 4.0 0.01 0.12 0.12 88 1015.3
20260901083108 63 75 2.0 4.0 0.03 0.12 0.12 88 1015.4
20260901081615 63 87 2.0 4.0 0.07 0.12 0.12 88 1015.1
20260901080103 63 109 0.0 3.0 0.10 0.12 0.12 88 1015.1
20260901074559 63 0 1.0 2.0 0.11 0.11 0.11 88 1015.4
20260901073058 64 0 0.0 2.0 0.09 0.09 0.09 89 1015.7
20260901071606 64 41 1.0 4.0 0.05 0.05 0.05 87 1015.7
20260901064605 66 0 1.0 3.0 0.00 0.00 0.00 82 1015.5
20260901063100 66 44 2.0 6.0 0.00 0.00 0.00 82 1015.5
20260901061600 66 49 0.0 2.0 0.00 0.00 0.00 83 1015.7
20260901060100 66 0 0.0 2.0 0.00 0.00 0.00 83 1015.8